Printer-friendly version

IAU Minor Planet Center

Minor Planet Center

(32) Pomona

Orbital Elements

The following orbital elements are taken from MPC 27086:
   (32) Pomona
Epoch 2007 Apr. 10.0 TT = JDT 2454200.5                 Goffin
M  69.93534              (2000.0)            P               Q
n   0.23682846     Peri.  339.49932     -0.93822024     +0.34031594
a   2.5873000      Node   220.56964     -0.30254640     -0.89463862
e   0.0831283      Incl.    5.52984     -0.16795375     -0.28949402
P   4.16           H    7.56          G   0.15           U   1
From 524 observations at 81 oppositions, 1854-1993, mean residual 1".05.
An explanation of the orbital elements is available.

These orbital elements are also available in forms suitable for loading into a number of popular planetarium-type software programs.


Ephemeris

The following ephemeris is at intervals of five days. A daily ephemeris covering the same time interval is also available.

Personalized ephemerides for this object (and others) can be generated using the MPES.

Date    TT    R. A. (2000) Decl.     Delta      r     Elong.  Phase     V
 
2007 06 10    20 51.34   -09 57.5    1.855    2.584   125.8    18.6    11.9
2007 06 15    20 50.70   -09 44.9    1.810    2.589   130.6    17.3    11.8
2007 06 20    20 49.40   -09 35.5    1.768    2.593   135.6    15.9    11.7
2007 06 25    20 47.46   -09 29.5    1.730    2.597   140.6    14.4    11.6
2007 06 30    20 44.92   -09 26.8    1.698    2.602   145.8    12.7    11.5
2007 07 05    20 41.82   -09 27.6    1.670    2.606   151.0    10.9    11.4
2007 07 10    20 38.24   -09 31.7    1.647    2.611   156.3     9.0    11.3
2007 07 15    20 34.24   -09 39.1    1.631    2.615   161.5     7.1    11.2
2007 07 20    20 29.95   -09 49.5    1.621    2.619   166.3     5.3    11.1
2007 07 25    20 25.48   -10 02.5    1.617    2.624   169.9     3.9    11.1
2007 07 30    20 20.97   -10 17.7    1.620    2.628   171.0     3.5    11.0
2007 08 04    20 16.55   -10 34.6    1.630    2.632   168.5     4.4    11.1
2007 08 09    20 12.33   -10 52.7    1.646    2.636   164.2     6.0    11.2
2007 08 14    20 08.44   -11 11.6    1.669    2.641   159.2     7.8    11.3
2007 08 19    20 04.98   -11 30.8    1.698    2.645   154.0     9.7    11.5
2007 08 24    20 02.05   -11 49.7    1.732    2.649   148.7    11.4    11.6
2007 08 29    19 59.71   -12 08.0    1.772    2.653   143.5    13.1    11.7
2007 09 03    19 57.99   -12 25.4    1.817    2.657   138.4    14.6    11.8
2007 09 08    19 56.93   -12 41.6    1.867    2.661   133.4    16.0    11.9

Back to Bright Minor Planets

Astronomical Headlines Index

MPC


Valid HTML 4.01!